• In Romania
  • List of Countries
  • For 7 days
  • Water Temperature
  • Satellite Maps
  • Weather Map
  • Weather Widgets
  • user-avatar
    Login

    Hourly Weather Zinovka

    Today, 21 July, Saturday

    Time Temperature Precipitation Wind Pressure Humidity
    00:00 +20°C° 0.2 mm 2 mps 738 mmHg 91%
    01:00 +20°C° 0.2 mm 2 mps 738 mmHg 92%
    02:00 +20°C° 0.2 mm 2 mps 738 mmHg 92%
    03:00 +19°C° 0 mm 2 mps 738 mmHg 93%
    04:00 +20°C° 0.3 mm 2 mps 738 mmHg 93%
    05:00 +20°C° 0.3 mm 2 mps 738 mmHg 93%
    06:00 +20°C° 0.3 mm 2 mps 738 mmHg 93%
    07:00 +21°C° 0.5 mm 2 mps 738 mmHg 90%
    08:00 +24°C° 0.5 mm 3 mps 738 mmHg 87%
    09:00 +25°C° 0.5 mm 3 mps 738 mmHg 84%
    10:00 +25°C° 1 mm 3 mps 738 mmHg 81%
    11:00 +26°C° 1 mm 4 mps 738 mmHg 77%
    12:00 +27°C° 1 mm 4 mps 738 mmHg 74%
    13:00 +27°C° 0.8 mm 4 mps 738 mmHg 73%
    14:00 +27°C° 0.8 mm 5 mps 738 mmHg 73%
    15:00 +28°C° 0.8 mm 5 mps 738 mmHg 73%
    16:00 +27°C° 0.8 mm 4 mps 738 mmHg 76%
    17:00 +27°C° 0.8 mm 4 mps 738 mmHg 79%
    18:00 +26°C° 0.8 mm 4 mps 738 mmHg 82%
    19:00 +25°C° 0.2 mm 3 mps 738 mmHg 85%
    20:00 +24°C° 0.2 mm 3 mps 738 mmHg 89%
    21:00 +22°C° 0.2 mm 3 mps 738 mmHg 92%
    22:00 +21°C° 0 mm 4 mps 738 mmHg 93%
    23:00 +21°C° 0 mm 4 mps 738 mmHg 94%

    Tomorrow, 22 July, Sunday

    Time Temperature Precipitation Wind Pressure Humidity
    00:00 +20°C° 0 mm 4 mps 738 mmHg 96%
    01:00 +20°C° 0 mm 4 mps 738 mmHg 96%
    02:00 +20°C° 0 mm 4 mps 738 mmHg 97%
    03:00 +20°C° 0 mm 5 mps 739 mmHg 97%
    04:00 +20°C° 0 mm 5 mps 739 mmHg 97%
    05:00 +20°C° 0 mm 4 mps 739 mmHg 96%
    06:00 +20°C° 0 mm 4 mps 739 mmHg 96%
    07:00 +20°C° 0 mm 5 mps 739 mmHg 95%
    08:00 +20°C° 0 mm 5 mps 739 mmHg 94%
    09:00 +20°C° 0 mm 5 mps 739 mmHg 93%
    10:00 +21°C° 0 mm 5 mps 739 mmHg 91%
    11:00 +21°C° 0 mm 5 mps 739 mmHg 90%
    12:00 +21°C° 0 mm 6 mps 740 mmHg 89%
    13:00 +22°C° 0 mm 6 mps 740 mmHg 87%
    14:00 +22°C° 0 mm 6 mps 740 mmHg 86%
    15:00 +22°C° 0 mm 6 mps 740 mmHg 84%
    16:00 +22°C° 0.1 mm 6 mps 740 mmHg 86%
    17:00 +21°C° 0.1 mm 5 mps 740 mmHg 87%
    18:00 +21°C° 0.1 mm 5 mps 740 mmHg 89%
    19:00 +20°C° 0.1 mm 5 mps 740 mmHg 90%
    20:00 +20°C° 0.1 mm 5 mps 740 mmHg 90%
    21:00 +19°C° 0.1 mm 6 mps 740 mmHg 91%
    22:00 +19°C° 0.1 mm 5 mps 740 mmHg 91%
    23:00 +19°C° 0.1 mm 5 mps 740 mmHg 92%

    Day after tomorrow, 23 July, Monday

    Time Temperature Precipitation Wind Pressure Humidity
    00:00 +19°C° 0.1 mm 5 mps 740 mmHg 92%
    01:00 +19°C° 0 mm 5 mps 740 mmHg 93%
    02:00 +17°C° 0 mm 5 mps 740 mmHg 93%
    03:00 +17°C° 0 mm 5 mps 740 mmHg 94%
    04:00 +17°C° 0.1 mm 5 mps 740 mmHg 94%
    05:00 +17°C° 0.1 mm 5 mps 740 mmHg 94%
    06:00 +17°C° 0.1 mm 5 mps 740 mmHg 94%
    07:00 +17°C° 0.1 mm 5 mps 740 mmHg 93%
    08:00 +17°C° 0.1 mm 5 mps 740 mmHg 92%
    09:00 +17°C° 0.1 mm 6 mps 740 mmHg 91%
    10:00 +19°C° 0.1 mm 6 mps 740 mmHg 91%
    11:00 +19°C° 0.1 mm 6 mps 740 mmHg 90%
    12:00 +19°C° 0.1 mm 5 mps 740 mmHg 90%
    13:00 +19°C° 0 mm 5 mps 740 mmHg 89%
    14:00 +20°C° 0 mm 5 mps 740 mmHg 89%
    15:00 +20°C° 0 mm 5 mps 740 mmHg 88%
    16:00 +20°C° 0 mm 5 mps 740 mmHg 89%
    17:00 +20°C° 0 mm 5 mps 740 mmHg 89%
    18:00 +20°C° 0 mm 5 mps 740 mmHg 90%
    19:00 +19°C° 0.6 mm 5 mps 740 mmHg 92%
    20:00 +19°C° 0.6 mm 5 mps 740 mmHg 93%
    21:00 +19°C° 0.6 mm 4 mps 740 mmHg 95%
    22:00 +19°C° 0.5 mm 4 mps 740 mmHg 95%
    23:00 +19°C° 0.5 mm 4 mps 741 mmHg 95%

    24 July, Tuesday

    Time Temperature Precipitation Wind Pressure Humidity
    00:00 +20°C° 0.5 mm 4 mps 741 mmHg 95%
    01:00 +19°C° 0.2 mm 4 mps 741 mmHg 96%
    02:00 +19°C° 0.2 mm 5 mps 741 mmHg 96%
    03:00 +19°C° 0.2 mm 5 mps 741 mmHg 96%
    04:00 +17°C° 0.6 mm 5 mps 741 mmHg 95%
    05:00 +17°C° 0.6 mm 5 mps 741 mmHg 95%
    06:00 +17°C° 0.6 mm 5 mps 741 mmHg 95%
    07:00 +19°C° 0.2 mm 5 mps 741 mmHg 94%
    08:00 +20°C° 0.2 mm 5 mps 742 mmHg 92%
    09:00 +20°C° 0.2 mm 5 mps 742 mmHg 91%
    10:00 +22°C° 0.2 mm 5 mps 742 mmHg 88%
    11:00 +23°C° 0.2 mm 5 mps 742 mmHg 85%
    12:00 +25°C° 0.2 mm 5 mps 742 mmHg 82%
    13:00 +25°C° 0.9 mm 5 mps 743 mmHg 81%
    14:00 +26°C° 0.9 mm 5 mps 743 mmHg 80%
    15:00 +26°C° 0.9 mm 5 mps 743 mmHg 79%
    16:00 +26°C° 0.3 mm 5 mps 743 mmHg 80%
    17:00 +26°C° 0.3 mm 4 mps 743 mmHg 81%
    18:00 +25°C° 0.3 mm 4 mps 743 mmHg 83%
    19:00 +23°C° 0 mm 4 mps 744 mmHg 85%
    20:00 +22°C° 0 mm 4 mps 744 mmHg 87%
    21:00 +21°C° 0 mm 4 mps 744 mmHg 89%
    22:00 +21°C° 0.1 mm 4 mps 744 mmHg 89%
    23:00 +20°C° 0.1 mm 4 mps 745 mmHg 89%

    25 July, Wednesday

    Time Temperature Precipitation Wind Pressure Humidity
    00:00 +20°C° 0.1 mm 4 mps 745 mmHg 90%
    01:00 +20°C° 0.2 mm 4 mps 745 mmHg 90%
    02:00 +19°C° 0.2 mm 4 mps 745 mmHg 89%
    03:00 +19°C° 0.2 mm 4 mps 745 mmHg 89%
    04:00 +19°C° 0 mm 4 mps 745 mmHg 88%
    05:00 +18°C° 0 mm 4 mps 745 mmHg 87%
    06:00 +18°C° 0 mm 4 mps 746 mmHg 86%
    07:00 +19°C° 0 mm 5 mps 746 mmHg 81%
    08:00 +21°C° 0 mm 5 mps 746 mmHg 77%
    09:00 +22°C° 0 mm 6 mps 746 mmHg 73%
    10:00 +23°C° 0 mm 6 mps 746 mmHg 69%
    11:00 +24°C° 0 mm 7 mps 746 mmHg 66%
    12:00 +26°C° 0 mm 7 mps 746 mmHg 62%
    13:00 +26°C° 0 mm 8 mps 746 mmHg 62%
    14:00 +26°C° 0 mm 8 mps 746 mmHg 61%
    15:00 +26°C° 0 mm 8 mps 746 mmHg 61%
    16:00 +24°C° 0 mm 7 mps 746 mmHg 64%
    17:00 +23°C° 0 mm 5 mps 746 mmHg 68%
    18:00 +22°C° 0 mm 4 mps 747 mmHg 71%
    19:00 +21°C° 0 mm 4 mps 747 mmHg 73%
    20:00 +21°C° 0 mm 3 mps 747 mmHg 75%
    21:00 +20°C° 0 mm 3 mps 747 mmHg 77%
    22:00 +19°C° 0 mm 3 mps 747 mmHg 79%
    23:00 +19°C° 0 mm 3 mps 747 mmHg 82%

    26 July, Thursday

    Time Temperature Precipitation Wind Pressure Humidity
    00:00 +19°C° 0 mm 3 mps 747 mmHg 84%
    01:00 +18°C° 0 mm 3 mps 748 mmHg 85%
    02:00 +18°C° 0 mm 3 mps 748 mmHg 85%
    03:00 +18°C° 0 mm 4 mps 748 mmHg 86%
    04:00 +18°C° 0 mm 4 mps 748 mmHg 85%
    05:00 +18°C° 0 mm 4 mps 748 mmHg 84%
    06:00 +18°C° 0 mm 4 mps 749 mmHg 83%
    07:00 +19°C° 0 mm 4 mps 749 mmHg 78%
    08:00 +21°C° 0 mm 5 mps 749 mmHg 73%
    09:00 +23°C° 0 mm 5 mps 749 mmHg 68%
    10:00 +24°C° 0 mm 6 mps 749 mmHg 65%
    11:00 +26°C° 0 mm 6 mps 749 mmHg 63%
    12:00 +27°C° 0 mm 6 mps 749 mmHg 60%
    13:00 +28°C° 0 mm 6 mps 749 mmHg 60%
    14:00 +28°C° 0 mm 6 mps 749 mmHg 59%
    15:00 +29°C° 0 mm 6 mps 749 mmHg 59%
    16:00 +28°C° 0.1 mm 5 mps 749 mmHg 63%
    17:00 +28°C° 0.1 mm 4 mps 749 mmHg 68%
    18:00 +27°C° 0.1 mm 3 mps 749 mmHg 73%
    19:00 +26°C° 0.1 mm 3 mps 749 mmHg 76%
    20:00 +24°C° 0.1 mm 3 mps 749 mmHg 79%
    21:00 +22°C° 0.1 mm 3 mps 749 mmHg 82%
    22:00 +21°C° 0 mm 3 mps 749 mmHg 83%
    23:00 +20°C° 0 mm 3 mps 749 mmHg 84%
    Show more